Location: Home
(42.5358°N, 72.7383°W)
Time: 06:23:10
(UTC-05:00)

Courier 1B - Pass Details

Date: 30 November 2021
Orbit: 962 x 1209 km, 28.3° (Epoch: 25 January)

Event Time Altitude Azimuth Distance (km) Brightness Sun altitude
Rises 19:22:47 0° 243° (WSW) 3,877 11.5 -33.2°
Reaches altitude 10° 19:26:08 10° 231° (SW) 2,876 10.5 -33.8°
Enters shadow 19:30:30 23° 193° (SSW) 2,019 9.2 -34.7°
Maximum altitude 19:31:31 24° 180° (S) 1,970 - -34.8°
Drops below altitude 10° 19:36:41 10° 129° (SE) 2,750 - -35.8°
Sets 19:39:48 0° 116° (ESE) 3,671 - -36.4°
